Location: Ku?niki
(51.4449°N, 17.8974°E)
Time: 08:26:05
(UTC+00:00)

EO-79 - Pass Details

Date: 01 July 2022
Orbit: 588 x 603 km, 98.0° (Epoch: 09 August)

Event Time Altitude Azimuth Distance (km) Brightness Sun altitude
Rises 23:29:47 0° 27° (NNE) 2,857 ? -15.0°
Reaches altitude 10° 23:32:34 10° 46° (NE) 1,951 ? -15.0°
Maximum altitude 23:35:31 18° 91° (E) 1,485 ? -14.9°
Drops below altitude 10° 23:38:28 10° 135° (SE) 1,945 ? -14.8°
Enters shadow 23:38:37 - 136° (SE) 1,987 ? -14.8°
